When you browse on this site, cookies collect data to enhance your experience and personalize the content and advertising you see.
Visit our Privacy Policy to learn more. By continuing to use the site, you agree to this use of cookies and data.
  • In Austria
  • List of Countries
  • For 7 days
  • Water Temperature
  • Weather Map
  • News
  • Weather Widgets
  • user-avatar
    Login

    Hourly Weather Fier

    Today, 1 April, Wednesday

    Time Temperature Precipitation Wind Pressure Humidity
    00:00 +12°C° 0.1 mm 2 mps 759 mmHg 85%
    01:00 +12°C° 0 mm 2 mps 758 mmHg 83%
    02:00 +10°C° 0.1 mm 2 mps 758 mmHg 85%
    03:00 +10°C° 0.1 mm 2 mps 758 mmHg 86%
    04:00 +11°C° 0.1 mm 1 mps 757 mmHg 87%
    05:00 +11°C° 0.6 mm 1 mps 757 mmHg 88%
    06:00 +10°C° 0.6 mm 2 mps 757 mmHg 89%
    07:00 +10°C° 0.6 mm 2 mps 757 mmHg 90%
    08:00 +10°C° 2.8 mm 3 mps 756 mmHg 91%
    09:00 +9°C° 2.8 mm 3 mps 756 mmHg 93%
    10:00 +8°C° 2.8 mm 4 mps 756 mmHg 94%
    11:00 +8°C° 2.4 mm 4 mps 756 mmHg 93%
    12:00 +8°C° 2.4 mm 3 mps 756 mmHg 92%
    13:00 +8°C° 2.4 mm 2 mps 756 mmHg 90%
    14:00 +8°C° 0.9 mm 3 mps 756 mmHg 89%
    15:00 +7°C° 0.9 mm 4 mps 756 mmHg 87%
    16:00 +7°C° 0.9 mm 5 mps 756 mmHg 86%
    17:00 +7°C° 0.2 mm 5 mps 756 mmHg 87%
    18:00 +6°C° 0.2 mm 4 mps 757 mmHg 88%
    19:00 +5°C° 0.2 mm 4 mps 757 mmHg 89%
    20:00 +5°C° 0 mm 3 mps 758 mmHg 88%
    21:00 +5°C° 0 mm 3 mps 758 mmHg 87%
    22:00 +6°C° 0 mm 2 mps 758 mmHg 86%
    23:00 +6°C° 0 mm 2 mps 758 mmHg 86%

    Tomorrow, 2 April, Thursday

    Time Temperature Precipitation Wind Pressure Humidity
    00:00 +6°C° 0 mm 2 mps 759 mmHg 85%
    01:00 +6°C° 0 mm 2 mps 759 mmHg 85%
    02:00 +5°C° 0 mm 2 mps 759 mmHg 86%
    03:00 +5°C° 0 mm 2 mps 759 mmHg 86%
    04:00 +4°C° 0 mm 2 mps 759 mmHg 87%
    05:00 +5°C° 0 mm 2 mps 759 mmHg 85%
    06:00 +6°C° 0 mm 2 mps 759 mmHg 82%
    07:00 +6°C° 0 mm 2 mps 759 mmHg 79%
    08:00 +8°C° 0 mm 2 mps 759 mmHg 74%
    09:00 +9°C° 0 mm 2 mps 759 mmHg 68%
    10:00 +12°C° 0 mm 2 mps 759 mmHg 63%
    11:00 +11°C° 0 mm 3 mps 759 mmHg 62%
    12:00 +12°C° 0 mm 3 mps 759 mmHg 60%
    13:00 +13°C° 0 mm 4 mps 759 mmHg 59%
    14:00 +12°C° 0 mm 4 mps 759 mmHg 61%
    15:00 +12°C° 0 mm 4 mps 758 mmHg 64%
    16:00 +12°C° 0 mm 4 mps 758 mmHg 66%
    17:00 +11°C° 0 mm 3 mps 758 mmHg 70%
    18:00 +9°C° 0 mm 2 mps 758 mmHg 75%
    19:00 +8°C° 0 mm 2 mps 759 mmHg 79%
    20:00 +9°C° 0 mm 1 mps 759 mmHg 81%
    21:00 +9°C° 0 mm 1 mps 759 mmHg 82%
    22:00 +8°C° 0 mm 1 mps 759 mmHg 83%
    23:00 +8°C° 0 mm 1 mps 759 mmHg 83%

    Day after tomorrow, 3 April, Friday

    Time Temperature Precipitation Wind Pressure Humidity
    00:00 +8°C° 0 mm 1 mps 759 mmHg 83%
    01:00 +8°C° 0 mm 1 mps 759 mmHg 83%
    02:00 +8°C° 0 mm 1 mps 759 mmHg 82%
    03:00 +7°C° 0 mm 2 mps 759 mmHg 81%
    04:00 +7°C° 0 mm 2 mps 759 mmHg 80%
    05:00 +8°C° 0 mm 2 mps 759 mmHg 78%
    06:00 +8°C° 0 mm 2 mps 759 mmHg 75%
    07:00 +10°C° 0 mm 1 mps 759 mmHg 73%
    08:00 +12°C° 0 mm 1 mps 759 mmHg 68%
    09:00 +13°C° 0 mm 1 mps 759 mmHg 63%
    10:00 +15°C° 0 mm 1 mps 759 mmHg 58%
    11:00 +15°C° 0 mm 1 mps 759 mmHg 58%
    12:00 +16°C° 0 mm 2 mps 759 mmHg 58%
    13:00 +16°C° 0 mm 2 mps 759 mmHg 58%
    14:00 +15°C° 0 mm 2 mps 759 mmHg 62%
    15:00 +15°C° 0 mm 2 mps 758 mmHg 66%
    16:00 +14°C° 0 mm 2 mps 758 mmHg 70%
    17:00 +13°C° 0.3 mm 2 mps 758 mmHg 75%
    18:00 +13°C° 0.3 mm 2 mps 759 mmHg 80%
    19:00 +12°C° 0.3 mm 2 mps 759 mmHg 85%
    20:00 +12°C° 0 mm 2 mps 759 mmHg 85%
    21:00 +12°C° 0 mm 2 mps 759 mmHg 84%
    22:00 +10°C° 0 mm 3 mps 759 mmHg 84%
    23:00 +10°C° 0 mm 3 mps 759 mmHg 84%

    4 April, Saturday

    Time Temperature Precipitation Wind Pressure Humidity
    00:00 +10°C° 0 mm 3 mps 759 mmHg 84%
    01:00 +9°C° 0 mm 3 mps 759 mmHg 84%
    02:00 +9°C° 0 mm 3 mps 758 mmHg 84%
    03:00 +9°C° 0 mm 3 mps 758 mmHg 83%
    04:00 +9°C° 0 mm 3 mps 758 mmHg 83%
    05:00 +10°C° 0 mm 3 mps 758 mmHg 81%
    06:00 +10°C° 0 mm 3 mps 758 mmHg 79%
    07:00 +11°C° 0 mm 3 mps 758 mmHg 77%
    08:00 +13°C° 0 mm 4 mps 758 mmHg 71%
    09:00 +15°C° 0 mm 4 mps 758 mmHg 65%
    10:00 +17°C° 0 mm 5 mps 758 mmHg 59%
    11:00 +17°C° 0 mm 5 mps 758 mmHg 57%
    12:00 +19°C° 0 mm 6 mps 758 mmHg 55%
    13:00 +20°C° 0 mm 6 mps 758 mmHg 52%
    14:00 +19°C° 0 mm 6 mps 757 mmHg 53%
    15:00 +18°C° 0 mm 7 mps 757 mmHg 54%
    16:00 +17°C° 0 mm 7 mps 757 mmHg 55%
    17:00 +16°C° 0 mm 7 mps 757 mmHg 58%
    18:00 +14°C° 0 mm 6 mps 757 mmHg 61%
    19:00 +11°C° 0 mm 6 mps 757 mmHg 64%
    20:00 +11°C° 0 mm 6 mps 758 mmHg 66%
    21:00 +11°C° 0 mm 6 mps 758 mmHg 67%
    22:00 +11°C° 0 mm 6 mps 758 mmHg 68%
    23:00 +12°C° 0 mm 5 mps 758 mmHg 68%

    5 April, Sunday

    Time Temperature Precipitation Wind Pressure Humidity
    00:00 +12°C° 0 mm 5 mps 758 mmHg 69%
    01:00 +12°C° 0 mm 5 mps 758 mmHg 69%
    02:00 +11°C° 0 mm 4 mps 758 mmHg 70%
    03:00 +11°C° 0 mm 4 mps 758 mmHg 71%
    04:00 +11°C° 0 mm 4 mps 758 mmHg 72%
    05:00 +12°C° 0 mm 4 mps 758 mmHg 72%
    06:00 +12°C° 0 mm 4 mps 758 mmHg 71%
    07:00 +13°C° 0 mm 4 mps 758 mmHg 71%
    08:00 +14°C° 0 mm 4 mps 758 mmHg 65%
    09:00 +16°C° 0 mm 5 mps 758 mmHg 60%
    10:00 +17°C° 0 mm 5 mps 758 mmHg 55%
    11:00 +17°C° 0 mm 5 mps 758 mmHg 53%
    12:00 +19°C° 0 mm 6 mps 758 mmHg 52%
    13:00 +19°C° 0 mm 6 mps 758 mmHg 51%
    14:00 +19°C° 0 mm 6 mps 758 mmHg 53%
    15:00 +17°C° 0 mm 6 mps 758 mmHg 54%
    16:00 +17°C° 0 mm 6 mps 759 mmHg 56%
    17:00 +15°C° 0 mm 6 mps 759 mmHg 58%
    18:00 +14°C° 0 mm 6 mps 759 mmHg 60%
    19:00 +12°C° 0 mm 7 mps 760 mmHg 63%
    20:00 +11°C° 0 mm 6 mps 760 mmHg 63%
    21:00 +11°C° 0 mm 6 mps 761 mmHg 64%
    22:00 +11°C° 0 mm 6 mps 761 mmHg 64%
    23:00 +11°C° 0 mm 6 mps 762 mmHg 65%

    6 April, Monday

    Time Temperature Precipitation Wind Pressure Humidity
    00:00 +12°C° 0 mm 5 mps 762 mmHg 66%
    01:00 +10°C° 0 mm 5 mps 762 mmHg 67%
    02:00 +11°C° 0 mm 4 mps 762 mmHg 68%
    03:00 +11°C° 0 mm 4 mps 763 mmHg 68%
    04:00 +11°C° 0 mm 3 mps 763 mmHg 69%
    05:00 +12°C° 0 mm 3 mps 763 mmHg 68%
    06:00 +12°C° 0 mm 4 mps 764 mmHg 68%
    07:00 +13°C° 0 mm 4 mps 764 mmHg 68%
    08:00 +14°C° 0 mm 4 mps 764 mmHg 62%
    09:00 +15°C° 0 mm 5 mps 765 mmHg 56%
    10:00 +16°C° 0 mm 5 mps 765 mmHg 51%
    11:00 +17°C° 0 mm 5 mps 765 mmHg 49%
    12:00 +17°C° 0 mm 5 mps 765 mmHg 48%
    13:00 +19°C° 0 mm 5 mps 765 mmHg 46%
    14:00 +17°C° 0 mm 5 mps 765 mmHg 48%
    15:00 +17°C° 0 mm 5 mps 765 mmHg 49%
    16:00 +18°C° 0 mm 4 mps 765 mmHg 51%
    17:00 +17°C° 0 mm 4 mps 765 mmHg 53%
    18:00 +14°C° 0 mm 4 mps 766 mmHg 56%
    19:00 +13°C° 0 mm 4 mps 766 mmHg 59%
    20:00 +12°C° 0 mm 4 mps 766 mmHg 59%
    21:00 +12°C° 0 mm 4 mps 767 mmHg 59%
    22:00 +11°C° 0 mm 3 mps 767 mmHg 59%
    23:00 +11°C° 0 mm 3 mps 767 mmHg 60%
    Show more